Date String (YYYY-MM-DD hh:mm:ss) UTC,Instrument flags,Ambient pressure (hPa),Sample flow (lpm),Bypass flow (lpm),Sample temperature (°C),Ambient temperature (°C),ASC tube jacket temperature (°C),LED temperature (°C),Box temperature (°C),Sample RH (%),Span deviation,Mass concentration (μg/m³),Mass concentration (μg/m³),Mass concentration (μg/m³)
DateTimeUTC,F1_M11,P_M11,Q1_M11,Q2_M11,T1_M11,T2_M11,T3_M11,T4_M11,T5_M11,U1_M11,ZSPAN_M11,X0_M11,X2_M11,X1_M11
2022-09-06 23:00:00,,0831.0,5.01,0.00,29.4,26.8,00.0,38.0,31.2,15.9,0004.6,0033.86,0021.77,0020.01
2022-09-06 23:01:00,,0831.1,5.00,0.00,29.4,27.1,00.0,38.0,31.1,16.1,0004.8,0034.25,0021.76,0020.02
2022-09-06 23:02:00,,0831.1,5.00,0.00,29.4,27.4,00.0,38.0,31.1,16.1,0004.8,0035.13,0021.78,0020.01
2022-09-06 23:03:00,,0831.2,5.01,0.00,29.4,27.8,00.0,38.0,31.2,15.9,0004.9,0036.19,0021.74,0020.03
2022-09-06 23:04:00,,0831.2,5.00,0.00,29.5,28.0,00.0,38.0,31.3,15.4,0004.8,0036.00,0021.67,0020.04
2022-09-06 23:05:00,,0831.2,4.99,0.00,29.5,28.2,00.0,38.1,31.4,15.5,0004.7,0036.19,0021.66,0020.03
2022-09-06 23:06:00,,0831.1,5.00,0.00,29.5,27.3,00.0,38.1,31.4,15.6,0004.1,0037.00,0021.71,0020.04
2022-09-06 23:07:00,,0831.1,5.01,0.00,29.5,26.6,00.0,38.1,31.3,15.4,0004.0,0036.41,0021.73,0020.02
2022-09-06 23:08:00,,0831.2,4.99,0.00,29.5,26.9,00.0,38.0,31.3,15.6,0003.8,0035.63,0021.72,0020.01
2022-09-06 23:09:00,,0831.2,5.00,0.00,29.4,27.2,00.0,38.0,31.2,15.9,0003.8,0035.10,0021.68,0020.01
2022-09-06 23:10:00,,0831.2,5.00,0.00,29.4,27.5,00.0,38.0,31.2,16.0,0003.3,0035.21,0021.64,0019.98
2022-09-06 23:11:00,,0831.1,5.01,0.00,29.5,27.8,00.0,38.0,31.3,16.0,0003.0,0035.44,0021.66,0019.95
2022-09-06 23:12:00,,0831.2,4.98,0.00,29.5,28.1,00.0,38.0,31.4,16.1,0003.2,0035.82,0021.61,0019.89
2022-09-06 23:13:00,,0831.1,5.00,0.00,29.5,27.8,00.0,38.1,31.4,15.9,0003.3,0035.26,0021.58,0019.87
2022-09-06 23:14:00,,0831.1,5.00,0.00,29.5,26.8,00.0,38.1,31.3,16.0,0003.0,0034.41,0021.55,0019.80
2022-09-06 23:15:00,,0831.2,4.98,0.00,29.5,26.7,00.0,38.0,31.3,16.1,0002.9,0034.84,0021.51,0019.76
2022-09-06 23:16:00,,0831.2,5.01,0.00,29.4,27.0,00.0,38.0,31.3,16.1,0002.6,0034.20,0021.42,0019.70
2022-09-06 23:17:00,,0831.2,5.00,0.00,29.4,27.3,00.0,38.0,31.2,16.1,0003.1,0034.53,0021.39,0019.66
2022-09-06 23:18:00,,0831.2,5.01,0.00,29.4,27.6,00.0,38.0,31.2,16.1,0003.5,0035.51,0021.37,0019.65
2022-09-06 23:19:00,,0831.2,5.01,0.00,29.5,27.9,00.0,38.0,31.3,16.1,0003.7,0035.19,0021.32,0019.61
2022-09-06 23:20:00,,0831.2,4.98,0.00,29.5,28.2,00.0,38.1,31.4,16.1,0003.5,0035.77,0021.36,0019.58
2022-09-06 23:21:00,,0831.2,4.99,0.00,29.6,27.9,00.0,38.1,31.5,16.6,0003.8,0036.85,0021.39,0019.59
2022-09-06 23:22:00,,0831.2,5.01,0.00,29.5,26.8,00.0,38.1,31.3,16.0,0003.8,0035.87,0021.37,0019.59
2022-09-06 23:23:00,,0831.2,4.99,0.00,29.5,26.7,00.0,38.1,31.3,15.9,0003.7,0035.09,0021.38,0019.58
2022-09-06 23:24:00,,0831.2,5.00,0.00,29.5,27.1,00.0,38.1,31.3,15.8,0003.4,0035.08,0021.39,0019.60
2022-09-06 23:25:00,,0831.2,5.00,0.00,29.5,27.4,00.0,38.0,31.2,15.9,0003.5,0034.71,0021.39,0019.60
2022-09-06 23:26:00,,0831.2,5.00,0.00,29.5,27.7,00.0,38.1,31.2,15.9,0003.6,0033.85,0021.36,0019.58
2022-09-06 23:27:00,,0831.2,5.01,0.00,29.5,28.0,00.0,38.1,31.3,16.1,0003.7,0034.25,0021.38,0019.56
2022-09-06 23:28:00,,0831.2,4.98,0.00,29.5,28.1,00.0,38.1,31.4,16.2,0003.4,0034.20,0021.40,0019.55
2022-09-06 23:29:00,,0831.2,5.01,0.00,29.5,27.2,00.0,38.1,31.4,16.2,0003.4,0033.35,0021.35,0019.53
2022-09-06 23:30:00,,0831.2,5.00,0.00,29.5,26.6,00.0,38.1,31.3,15.9,0003.5,0035.93,0021.39,0019.57
2022-09-06 23:31:00,,0831.2,5.00,0.00,29.5,26.9,00.0,38.1,31.3,15.9,0003.7,0037.01,0021.36,0019.60
2022-09-06 23:32:00,,0831.2,5.00,0.00,29.4,27.2,00.0,38.0,31.2,15.8,0003.7,0035.67,0021.33,0019.61
2022-09-06 23:33:00,,0831.2,5.00,0.00,29.4,27.5,00.0,38.0,31.2,15.8,0003.6,0035.21,0021.26,0019.59
2022-09-06 23:34:00,,0831.2,5.02,0.00,29.5,27.8,00.0,38.0,31.3,15.8,0003.6,0036.44,0021.21,0019.58
2022-09-06 23:35:00,,0831.2,4.98,0.00,29.5,28.1,00.0,38.1,31.4,15.9,0003.3,0035.95,0021.19,0019.58
2022-09-06 23:36:00,,0831.2,5.01,0.00,29.6,28.2,00.0,38.1,31.5,15.9,0003.1,0036.26,0021.22,0019.59
2022-09-06 23:37:00,,0831.2,4.99,0.00,29.6,27.3,00.0,38.1,31.4,15.8,0003.0,0036.77,0021.31,0019.63
2022-09-06 23:38:00,,0831.1,5.01,0.00,29.5,26.6,00.0,38.1,31.3,16.1,0003.1,0037.95,0021.39,0019.65
2022-09-06 23:39:00,,0831.2,4.99,0.00,29.5,26.9,00.0,38.1,31.4,16.3,0002.9,0037.91,0021.36,0019.66
2022-09-06 23:40:00,,0831.1,5.01,0.00,29.5,27.2,00.0,38.0,31.3,16.4,0003.0,0038.63,0021.35,0019.65
2022-09-06 23:41:00,,0831.2,5.00,0.00,29.5,27.5,00.0,38.1,31.3,16.3,0003.3,0036.28,0021.30,0019.63
2022-09-06 23:42:00,,0831.2,5.01,0.00,29.5,27.8,00.0,38.1,31.3,16.4,0003.4,0035.34,0021.25,0019.60
2022-09-06 23:43:00,,0831.2,5.01,0.00,29.5,28.1,00.0,38.1,31.4,15.9,0003.5,0036.11,0021.29,0019.59
2022-09-06 23:44:00,,0831.2,4.98,0.00,29.6,28.2,00.0,38.1,31.5,15.7,0003.6,0036.95,0021.36,0019.61
2022-09-06 23:45:00,,0831.2,5.01,0.00,29.6,27.3,00.0,38.1,31.4,15.6,0003.8,0035.77,0021.38,0019.62
2022-09-06 23:46:00,,0831.2,4.99,0.00,29.5,26.6,00.0,38.1,31.3,15.7,0003.9,0036.06,0021.41,0019.62
2022-09-06 23:47:00,,0831.1,5.00,0.00,29.5,26.9,00.0,38.1,31.3,15.9,0004.0,0035.54,0021.37,0019.61
2022-09-06 23:48:00,,0831.2,5.00,0.00,29.5,27.2,00.0,38.1,31.2,15.9,0003.8,0035.31,0021.31,0019.59
2022-09-06 23:49:00,,0831.2,5.01,0.00,29.5,27.5,00.0,38.1,31.2,16.2,0003.2,0034.47,0021.28,0019.57
2022-09-06 23:50:00,,0831.2,5.00,0.00,29.5,27.8,00.0,38.1,31.3,16.0,0003.0,0033.64,0021.30,0019.54
2022-09-06 23:51:00,,0831.2,4.98,0.00,29.5,28.1,00.0,38.1,31.4,15.9,0002.1,0032.80,0021.32,0019.54
2022-09-06 23:52:00,,0831.2,5.01,0.00,29.6,28.2,00.0,38.1,31.5,16.2,0001.7,0032.46,0021.29,0019.52
2022-09-06 23:53:00,,0831.2,4.99,0.00,29.6,27.3,00.0,38.1,31.4,16.1,0001.5,0032.20,0021.28,0019.51
2022-09-06 23:54:00,,0831.2,5.00,0.00,29.5,26.6,00.0,38.1,31.3,16.0,0001.3,0031.79,0021.22,0019.48
2022-09-06 23:55:00,,0831.2,5.01,0.00,29.5,26.9,00.0,38.1,31.3,16.2,0001.6,0030.88,0021.18,0019.45
2022-09-06 23:56:00,,0831.2,5.00,0.00,29.5,27.2,00.0,38.1,31.2,16.3,0001.2,0031.17,0021.15,0019.43
2022-09-06 23:57:00,,0831.2,5.00,0.00,29.5,27.5,00.0,38.1,31.2,16.6,0001.3,0032.35,0021.16,0019.40
2022-09-06 23:58:00,,0831.2,5.00,0.00,29.5,27.8,00.0,38.1,31.3,16.7,0001.3,0033.55,0021.11,0019.35
2022-09-06 23:59:00,,0831.2,4.99,0.00,29.5,28.1,00.0,38.1,31.4,16.5,0001.6,0033.93,0021.15,0019.34
